Lancaster, OH

9:09 PM EST on December 15, 2017 (GMT -0500)
Fairfield County

Weather History for KLHQ - March, 2012

Change the Weather History Date:

Wednesday, March 28, 2012

  Actual Average Record
Temperature  
Mean Temperature 63 °F -  
Max Temperature 75 °F 53 °F 80 °F (1989)
Min Temperature 51 °F 31 °F 15 °F (1955)
Degree Days  
Heating Degree Days 2    
Growing Degree Days 13 (Base 50)    
Moisture  
Dew Point 41 °F    
Average Humidity 47    
Maximum Humidity 68    
Minimum Humidity 26    
Precipitation  
Precipitation 0.04 in - - ()
Sea Level Pressure  
Sea Level Pressure 29.88 in    
Wind  
Wind Speed 9 mph (West)    
Max Wind Speed 23 mph    
Max Gust Speed 39 mph    
Visibility 10 miles    
Events Rain , Thunderstorm    
Averages and records for this station are not official NWS values.
T = Trace of Precipitation, MM = Missing Value Source: NWS Daily Summary

Daily Weather History Graph

Daily Weather History Graph

Search for Another Location

Airport or City:

Trip Planner

Search our weather history database for the weather conditions in past years. The results will help you decide how hot, cold, wet, or windy it might be!

Date:

Astronomy

Mar. 28, 2012 Rise Set
Actual Time 7:20 AM EDT 7:51 PM EDT
Civil Twilight 6:53 AM EDT 8:18 PM EDT
Nautical Twilight 6:21 AM EDT 8:50 PM EDT
Astronomical Twilight 5:48 AM EDT 9:23 PM EDT
Moon 10:37 AM EDT (3/28) 12:51 AM EDT (3/28)
Length of Visible Light 13h 25m
Length of Day
12h 30m
Waxing Crescent, 30% of the Moon is Illuminated
Mar 28
Waxing Crescent
Mar 30
First Quarter
Apr 6
Full
Apr 13
Last Quarter
Apr 21
New

Hourly Weather History & Observations

Time (EDT) Temp. Dew Point Humidity Pressure Visibility Wind Dir Wind Speed Gust Speed Precip Events Conditions
12:53 AM 52.0 °F 26.1 °F 37% 30.01 in 10.0 mi Calm Calm - N/A   Clear
1:53 AM 51.1 °F 27.0 °F 39% 29.98 in 10.0 mi SSE 4.6 mph - N/A   Clear
2:53 AM 53.1 °F 27.0 °F 37% 29.96 in 10.0 mi South 3.5 mph - N/A   Clear
3:53 AM 53.1 °F 28.9 °F 40% 29.94 in 10.0 mi SSW 6.9 mph - N/A   Clear
4:53 AM 57.0 °F 30.9 °F 37% 29.90 in 10.0 mi SSW 6.9 mph - N/A   Clear
5:53 AM 57.0 °F 37.9 °F 49% 29.89 in 10.0 mi SW 8.1 mph - N/A   Clear
6:53 AM 59.0 °F 43.0 °F 55% 29.88 in 10.0 mi SW 12.7 mph - N/A   Partly Cloudy
7:53 AM 61.0 °F 46.9 °F 60% 29.88 in 10.0 mi SW 11.5 mph 19.6 mph N/A   Clear
8:53 AM 62.1 °F 48.9 °F 62% 29.89 in 10.0 mi WSW 15.0 mph 24.2 mph N/A   Scattered Clouds
9:53 AM 64.0 °F 51.1 °F 63% 29.88 in 10.0 mi WSW 15.0 mph 24.2 mph N/A   Scattered Clouds
10:53 AM 66.0 °F 53.1 °F 63% 29.87 in 8.0 mi West 12.7 mph 25.3 mph 0.00 in Rain , Thunderstorm Light Rain
11:29 AM 66.2 °F 55.4 °F 68% 29.87 in 10.0 mi WSW 12.7 mph 20.7 mph 0.04 in   Mostly Cloudy
11:53 AM 69.1 °F 57.0 °F 65% 29.85 in 10.0 mi West 19.6 mph 24.2 mph 0.04 in   Mostly Cloudy
12:53 PM 69.1 °F 55.9 °F 63% 29.86 in 10.0 mi West 19.6 mph 27.6 mph N/A   Mostly Cloudy
1:53 PM 69.1 °F 55.9 °F 63% 29.84 in 10.0 mi WSW 15.0 mph 27.6 mph N/A   Mostly Cloudy
2:53 PM 73.9 °F 52.0 °F 46% 29.82 in 10.0 mi West 17.3 mph 33.4 mph N/A   Scattered Clouds
3:53 PM 75.0 °F 43.0 °F 32% 29.81 in 10.0 mi West 23.0 mph 39.1 mph N/A   Partly Cloudy
4:53 PM 75.0 °F 37.9 °F 26% 29.79 in 10.0 mi WNW 19.6 mph 31.1 mph N/A   Clear
5:53 PM 73.0 °F 37.0 °F 27% 29.80 in 10.0 mi West 21.9 mph 33.4 mph N/A   Clear
6:53 PM 71.1 °F 36.0 °F 28% 29.81 in 10.0 mi WNW 15.0 mph 27.6 mph N/A   Clear
7:53 PM 68.0 °F 35.1 °F 30% 29.84 in 10.0 mi WNW 13.8 mph 19.6 mph N/A   Clear
8:53 PM 66.0 °F 34.0 °F 30% 29.87 in 10.0 mi WNW 11.5 mph 19.6 mph N/A   Clear
9:53 PM 63.0 °F 33.1 °F 33% 29.88 in 10.0 mi WNW 9.2 mph 17.3 mph N/A   Clear
10:53 PM 57.9 °F 39.9 °F 51% 29.91 in 10.0 mi NNW 11.5 mph - N/A   Clear
11:53 PM 55.0 °F 41.0 °F 59% 29.93 in 10.0 mi NNW 6.9 mph - N/A   Clear